Temp
-8 -8 -8 -8 -8 -8 -8 -8 -8 -8 -8 -8 -8 -8 -8 -8 -8 -8 -8 -8 -8 -8 -9 -9 -9 -8 -9 -9 -9 -9 -9 -9 -10 -10 -10 -10 -10 -10 -10 -10 -10 -9 -10 -10 -10
-8 -8 -8 -8 -8 -8 -8 -8 -8 -8 -8 -8 -8 -9 -9 -9 -9 -8 -8 -8 -9 -9 -9 -9 -9 -9 -9 -9 -9 -9 -9 -9 -9 -10 -10 -10 -10 -10 -10 -10 -10 -10 -9 -9 -9
-9 -9 -8 -8 -8 -8 -8 -8 -8 -8 -8 -9 -9 -9 -9 -9 -9 -9 -9 -9 -9 -8 -9 -9 -9 -9 -9 -9 -9 -9 -9 -9 -9 -9 -9 -10 -10 -10 -10 -10 -10 -10 -10 -10 -10
-9 -9 -9 -9 -9 -8 -8 -8 -9 -9 -9 -9 -9 -9 -9 -9 -9 -9 -9 -9 -9 -9 -9 -9 -9 -9 -9 -9 -9 -9 -9 -9 -9 -9 -9 -10 -10 -10 -10 -10 -10 -10 -10 -10 -10
-9 -9 -9 -9 -9 -9 -9 -9 -9 -9 -9 -9 -9 -9 -9 -9 -9 -9 -9 -9 -9 -9 -9 -9 -9 -9 -9 -9 -9 -9 -9 -9 -9 -9 -9 -9 -9 -10 -10 -10 -10 -10 -10 -10 -10
-10 -10 -10 -10 -9 -9 -9 -9 -9 -9 -9 -9 -10 -10 -10 -10 -10 -10 -10 -10 -10 -10 -10 -10 -10 -10 -10 -10 -9 -9 -9 -9 -10 -10 -10 -9 -9 -10 -10 -10 -10 -10 -10 -10 -10
-10 -10 -10 -10 -10 -10 -9 -9 -9 -9 -9 -10 -10 -10 -10 -10 -10 -10 -10 -10 -10 -10 -10 -10 -10 -10 -10 -10 -10 -9 -9 -9 -10 -10 -9 -9 -9 -10 -10 -10 -10 -10 -10 -10 -10
-10 -10 -10 -10 -10 -10 -10 -10 -10 -10 -10 -10 -10 -10 -10 -11 -11 -10 -10 -10 -10 -10 -10 -10 -10 -10 -10 -10 -10 -10 -10 -9 -10 -10 -10 -9 -9 -10 -10 -10 -10 -10 -10 -10 -10
-11 -10 -10 -10 -10 -10 -10 -10 -10 -10 -10 -10 -11 -10 -11 -11 -11 -11 -10 -10 -11 -11 -11 -11 -11 -11 -10 -10 -10 -10 -10 -10 -10 -10 -10 -10 -9 -10 -10 -10 -10 -10 -10 -10 -10
-11 -11 -11 -11 -11 -11 -11 -10 -10 -10 -10 -10 -11 -11 -11 -11 -11 -11 -11 -11 -11 -11 -11 -11 -11 -11 -11 -11 -11 -11 -10 -10 -10 -10 -10 -9 -9 -9 -10 -9 -10 -10 -10 -10 -10
-11 -11 -11 -11 -11 -11 -11 -11 -11 -11 -11 -11 -11 -11 -11 -11 -11 -11 -11 -11 -11 -11 -11 -12 -12 -11 -12 -11 -11 -11 -11 -11 -10 -10 -10 -10 -9 -9 -10 -10 -10 -10 -10 -10 -11
-11 -11 -11 -11 -11 -11 -11 -11 -11 -11 -11 -11 -11 -11 -11 -11 -11 -11 -11 -11 -11 -11 -12 -12 -11 -12 -12 -12 -11 -11 -11 -11 -11 -10 -10 -9 -8 -9 -9 -10 -10 -10 -11 -11 -11
-12 -11 -11 -12 -12 -12 -12 -11 -11 -11 -11 -11 -11 -11 -11 -11 -11 -11 -11 -11 -11 -11 -12 -12 -12 -12 -12 -12 -11 -12 -12 -12 -11 -11 -10 -9 -8 -9 -9 -9 -10 -11 -11 -11 -11
-12 -12 -12 -12 -12 -12 -12 -12 -12 -12 -11 -10 -11 -11 -11 -11 -11 -11 -11 -11 -11 -12 -12 -12 -12 -12 -12 -12 -12 -12 -12 -12 -11 -11 -10 -10 -7 -8 -9 -8 -10 -11 -11 -11 -11
-12 -12 -13 -13 -12 -13 -13 -13 -13 -12 -11 -11 -11 -11 -11 -11 -11 -11 -12 -12 -12 -12 -12 -12 -12 -12 -12 -12 -12 -12 -12 -12 -12 -11 -10 -10 -9 -8 -9 -8 -9 -11 -11 -11 -11
-12 -13 -13 -13 -13 -13 -13 -13 -13 -13 -11 -11 -11 -12 -12 -12 -12 -12 -12 -12 -12 -12 -12 -12 -12 -12 -12 -12 -12 -12 -12 -12 -12 -11 -10 -10 -10 -7 -8 -9 -9 -10 -11 -11 -11
-13 -13 -14 -13 -13 -13 -13 -13 -13 -12 -11 -11 -12 -12 -12 -12 -12 -12 -12 -12 -12 -13 -12 -12 -12 -12 -12 -13 -13 -13 -13 -13 -12 -11 -10 -10 -9 -7 -9 -10 -10 -11 -11 -11 -12
-13 -12 -13 -14 -14 -14 -14 -14 -12 -11 -11 -12 -12 -13 -13 -13 -13 -13 -13 -12 -12 -13 -13 -13 -12 -13 -13 -13 -13 -13 -13 -14 -13 -12 -11 -10 -8 -8 -9 -10 -11 -11 -11 -12 -12
-13 -13 -12 -14 -14 -15 -15 -14 -11 -11 -12 -13 -13 -12 -12 -13 -14 -14 -14 -13 -13 -13 -14 -14 -13 -14 -13 -13 -14 -13 -13 -14 -15 -14 -13 -10 -9 -9 -10 -10 -11 -11 -12 -12 -13
-14 -13 -12 -15 -15 -15 -15 -12 -11 -12 -13 -13 -13 -13 -13 -13 -14 -14 -13 -13 -13 -14 -15 -15 -15 -14 -14 -14 -13 -14 -14 -14 -14 -15 -13 -9 -9 -9 -10 -10 -11 -12 -12 -13 -13
-14 -14 -12 -13 -15 -16 -15 -11 -12 -13 -14 -14 -14 -14 -13 -14 -14 -14 -13 -13 -14 -14 -16 -16 -15 -15 -15 -13 -14 -14 -14 -14 -15 -14 -14 -12 -8 -9 -9 -11 -12 -12 -13 -13 -14
-15 -15 -14 -15 -14 -15 -14 -13 -13 -12 -14 -15 -15 -14 -14 -15 -14 -15 -14 -14 -14 -14 -15 -16 -17 -16 -15 -14 -13 -13 -13 -14 -14 -14 -14 -15 -10 -8 -11 -12 -12 -12 -13 -14 -14
-15 -16 -15 -15 -15 -15 -14 -14 -14 -13 -14 -14 -14 -14 -14 -15 -15 -14 -14 -13 -14 -15 -15 -15 -15 -16 -14 -13 -13 -13 -14 -14 -15 -15 -14 -16 -11 -12 -12 -13 -13 -13 -14 -14 -14
-17 -18 -16 -16 -15 -15 -15 -15 -15 -14 -15 -14 -15 -15 -15 -15 -15 -15 -14 -14 -14 -15 -15 -15 -15 -15 -14 -14 -14 -15 -15 -14 -14 -14 -13 -14 -14 -12 -11 -13 -13 -14 -14 -13 -14
-17 -18 -18 -18 -17 -17 -17 -16 -15 -15 -15 -15 -15 -15 -15 -15 -15 -15 -14 -15 -15 -15 -15 -15 -15 -15 -15 -14 -15 -15 -15 -14 -13 -13 -14 -13 -15 -13 -12 -14 -14 -13 -13 -14 -14
-19 -18 -18 -18 -18 -18 -18 -17 -17 -16 -16 -16 -16 -16 -16 -15 -15 -15 -16 -15 -15 -15 -15 -16 -15 -16 -16 -15 -15 -16 -16 -13 -14 -14 -15 -15 -15 -14 -15 -14 -14 -14 -16 -15 -14
-21 -21 -20 -19 -19 -19 -19 -18 -17 -16 -17 -17 -17 -17 -16 -16 -16 -17 -17 -16 -17 -16 -16 -16 -16 -17 -17 -17 -17 -17 -14 -17 -15 -15 -16 -16 -15 -14 -14 -15 -15 -14 -14 -14 -15
Height
5906 5906 5906 5906 5906 5906 5906 5906 5907 5907 5906 5906 5905 5904 5903 5902 5900 5899 5896 5895 5894 5892 5890 5889 5888 5886 5884 5882 5880 5878 5877 5874 5872 5870 5868 5866 5864 5862 5860 5857 5854 5852 5850 5849 5848
5901 5902 5903 5903 5902 5903 5903 5903 5903 5903 5903 5903 5903 5902 5902 5901 5900 5898 5896 5894 5892 5891 5890 5888 5886 5885 5883 5880 5878 5876 5875 5873 5871 5868 5866 5864 5861 5859 5857 5855 5852 5850 5847 5846 5844
5896 5897 5898 5898 5899 5899 5899 5899 5899 5899 5899 5899 5899 5899 5898 5897 5897 5895 5894 5893 5892 5890 5888 5886 5885 5882 5880 5878 5876 5874 5872 5870 5868 5867 5864 5862 5859 5856 5854 5851 5848 5846 5844 5842 5840
5891 5891 5892 5893 5894 5894 5894 5895 5895 5894 5894 5894 5894 5895 5895 5894 5894 5891 5890 5889 5888 5886 5885 5882 5881 5879 5878 5876 5874 5872 5869 5867 5865 5863 5861 5858 5855 5852 5849 5847 5844 5841 5839 5836 5834
5885 5886 5886 5887 5887 5888 5888 5889 5889 5888 5888 5888 5887 5888 5889 5890 5889 5887 5886 5885 5884 5882 5881 5879 5877 5875 5873 5871 5869 5867 5866 5863 5861 5859 5857 5854 5852 5849 5845 5843 5840 5837 5834 5831 5829
5878 5879 5880 5880 5880 5881 5882 5882 5882 5882 5882 5881 5882 5882 5883 5883 5883 5882 5881 5880 5878 5878 5876 5874 5873 5871 5869 5867 5865 5863 5861 5859 5857 5854 5852 5850 5848 5845 5841 5839 5835 5833 5829 5826 5823
5872 5872 5873 5873 5874 5874 5874 5875 5876 5875 5875 5875 5875 5875 5875 5876 5876 5876 5876 5875 5874 5873 5872 5870 5868 5866 5865 5862 5861 5858 5856 5853 5851 5848 5846 5845 5845 5841 5836 5834 5831 5828 5824 5821 5817
5864 5865 5866 5866 5866 5867 5866 5866 5867 5868 5868 5868 5866 5866 5867 5868 5868 5868 5869 5869 5867 5866 5865 5864 5862 5861 5859 5857 5855 5852 5850 5847 5845 5842 5840 5837 5842 5836 5830 5829 5825 5821 5817 5813 5810
5855 5856 5857 5858 5858 5859 5858 5858 5858 5859 5859 5858 5858 5858 5859 5861 5861 5861 5861 5860 5859 5858 5857 5856 5854 5854 5853 5850 5847 5847 5843 5841 5838 5833 5829 5827 5831 5831 5825 5821 5820 5814 5809 5806 5802
5846 5848 5848 5849 5849 5850 5851 5849 5848 5849 5849 5850 5848 5849 5851 5853 5853 5852 5851 5851 5850 5849 5848 5848 5846 5846 5847 5841 5840 5838 5835 5834 5831 5824 5818 5818 5817 5823 5820 5813 5812 5808 5802 5798 5794
5836 5838 5839 5839 5840 5840 5842 5840 5842 5840 5840 5840 5838 5839 5841 5843 5844 5843 5843 5842 5841 5840 5839 5837 5836 5839 5836 5833 5831 5829 5826 5823 5824 5815 5807 5809 5801 5808 5810 5807 5804 5800 5793 5789 5786
5826 5827 5828 5829 5830 5830 5832 5832 5830 5829 5827 5828 5828 5829 5832 5834 5834 5835 5836 5834 5833 5831 5830 5827 5827 5830 5825 5823 5821 5818 5815 5815 5811 5806 5797 5794 5791 5796 5796 5799 5795 5790 5785 5781 5778
5816 5817 5818 5819 5819 5819 5821 5822 5820 5818 5812 5816 5817 5817 5822 5825 5825 5828 5827 5824 5823 5822 5821 5816 5820 5818 5815 5813 5810 5807 5805 5802 5797 5796 5790 5780 5778 5782 5786 5784 5786 5780 5775 5772 5768
5805 5807 5809 5808 5808 5809 5810 5811 5810 5808 5797 5796 5806 5807 5811 5814 5811 5818 5817 5815 5812 5812 5811 5805 5810 5808 5805 5804 5801 5794 5797 5791 5787 5783 5775 5776 5754 5771 5772 5772 5771 5767 5764 5762 5760
5795 5796 5798 5798 5797 5798 5798 5798 5798 5799 5780 5782 5780 5794 5803 5805 5805 5805 5805 5803 5801 5801 5800 5799 5797 5796 5794 5794 5791 5785 5784 5781 5776 5771 5762 5767 5756 5755 5756 5757 5761 5753 5753 5751 5749
5782 5785 5786 5786 5785 5785 5785 5785 5786 5784 5760 5767 5772 5777 5786 5793 5794 5793 5793 5792 5791 5788 5787 5787 5785 5784 5783 5782 5779 5775 5772 5769 5764 5761 5750 5757 5749 5742 5748 5745 5746 5749 5742 5738 5735
5765 5767 5771 5772 5770 5769 5769 5771 5771 5756 5758 5761 5766 5767 5771 5773 5776 5779 5780 5778 5777 5776 5775 5776 5773 5772 5772 5770 5767 5765 5762 5755 5750 5750 5741 5742 5733 5733 5739 5735 5732 5734 5730 5727 5722
5748 5749 5753 5757 5752 5751 5751 5754 5747 5746 5754 5755 5755 5757 5756 5760 5760 5760 5761 5762 5765 5764 5762 5758 5758 5761 5760 5759 5754 5749 5750 5746 5741 5737 5728 5729 5717 5723 5719 5720 5723 5722 5718 5715 5712
5730 5731 5734 5739 5735 5732 5733 5733 5731 5737 5741 5741 5741 5740 5743 5748 5748 5746 5744 5745 5749 5751 5749 5745 5742 5744 5743 5741 5740 5737 5732 5736 5728 5726 5717 5713 5710 5708 5706 5705 5711 5708 5705 5702 5699
5713 5711 5716 5719 5715 5712 5711 5719 5720 5726 5727 5727 5725 5727 5728 5731 5731 5730 5732 5733 5733 5735 5735 5726 5722 5726 5724 5725 5722 5723 5723 5716 5714 5710 5705 5701 5700 5695 5691 5697 5702 5696 5687 5685 5682
5697 5688 5701 5698 5692 5688 5688 5703 5707 5710 5710 5710 5708 5708 5710 5713 5712 5712 5713 5715 5717 5718 5714 5713 5708 5710 5709 5708 5710 5705 5701 5701 5700 5695 5688 5689 5682 5682 5685 5686 5683 5682 5677 5672 5666
5675 5670 5674 5673 5668 5666 5673 5685 5690 5692 5692 5693 5691 5691 5691 5694 5693 5692 5693 5697 5701 5701 5694 5692 5685 5683 5691 5692 5691 5686 5686 5686 5677 5678 5674 5666 5666 5674 5681 5673 5675 5668 5663 5657 5648
5654 5650 5649 5648 5647 5649 5659 5664 5663 5672 5672 5671 5670 5675 5677 5674 5669 5671 5677 5684 5681 5676 5673 5672 5662 5662 5670 5674 5671 5670 5672 5669 5664 5660 5651 5645 5645 5675 5663 5659 5659 5652 5645 5637 5632
5629 5624 5624 5620 5627 5630 5635 5640 5641 5650 5653 5649 5651 5654 5657 5657 5656 5654 5659 5661 5658 5656 5656 5650 5640 5641 5645 5658 5653 5649 5649 5650 5645 5634 5635 5629 5628 5649 5653 5649 5642 5636 5630 5625 5620
5606 5598 5602 5599 5607 5612 5611 5615 5620 5622 5629 5631 5626 5635 5638 5636 5635 5636 5643 5638 5636 5636 5635 5628 5619 5623 5625 5631 5631 5628 5628 5637 5628 5620 5609 5617 5610 5625 5633 5628 5623 5618 5614 5610 5604
5581 5582 5580 5579 5584 5586 5590 5592 5602 5608 5608 5609 5605 5618 5615 5613 5619 5620 5618 5616 5611 5613 5611 5609 5602 5603 5598 5609 5610 5604 5607 5620 5617 5614 5596 5591 5592 5615 5608 5607 5605 5604 5594 5592 5589
5560 5561 5557 5553 5561 5560 5565 5570 5577 5591 5589 5590 5592 5591 5591 5602 5604 5592 5593 5591 5588 5591 5594 5591 5586 5583 5576 5588 5585 5574 5602 5597 5596 5597 5592 5579 5583 5592 5592 5586 5584 5583 5576 5577 5573
Wind_Speed
21 19 18 16 17 16 15 14 14 14 13 11 10 8 6 7 7 7 7 7 7 6 7 7 8 10 11 12 12 12 11 9 10 10 10 10 11 13 14 14 17 17 17 16 18
27 26 24 23 21 21 20 18 18 18 18 17 14 13 11 10 10 10 10 9 10 8 9 10 9 10 11 13 12 12 13 12 12 12 10 10 12 12 14 15 17 17 17 18 20
30 30 28 28 27 25 25 24 23 23 22 22 20 18 16 15 14 13 11 12 14 14 14 14 14 13 14 14 14 13 14 15 15 15 16 17 19 18 19 18 16 18 19 20 21
33 33 32 31 31 31 29 29 28 27 27 26 25 24 22 21 20 18 17 17 17 16 17 18 18 18 17 18 18 17 17 16 17 18 19 20 21 21 22 18 19 20 21 23 23
34 34 34 34 34 34 34 33 32 31 31 30 30 29 28 26 25 25 23 23 23 22 21 21 22 22 22 21 22 23 22 22 22 21 21 22 22 23 25 22 22 23 24 24 25
34 35 37 36 36 36 36 36 37 36 34 34 33 33 32 31 30 30 29 29 29 28 28 28 27 27 28 26 26 25 26 27 26 26 24 23 23 23 26 26 27 28 29 30 31
36 36 36 37 38 38 38 38 39 40 40 39 38 37 35 34 34 33 33 32 33 33 34 33 33 33 32 33 31 30 30 31 31 32 31 29 20 25 29 29 30 30 30 32 34
36 36 38 39 39 39 39 40 40 41 42 43 43 42 40 37 37 37 36 36 35 35 36 36 36 36 37 36 36 37 35 34 34 36 36 36 21 28 32 31 31 32 35 35 35
40 39 39 39 41 41 41 42 41 40 42 43 45 45 43 41 40 41 40 39 40 40 38 38 37 37 37 37 39 38 39 39 39 41 43 42 34 29 34 35 31 34 36 38 36
43 42 42 42 42 41 43 44 44 43 43 43 45 46 44 42 43 43 44 44 43 43 43 42 42 40 37 37 40 39 41 42 42 46 48 45 43 34 34 36 34 35 36 37 40
45 45 45 45 44 44 43 45 46 47 46 46 48 47 46 43 42 43 44 46 47 46 44 44 45 41 41 43 43 44 45 46 43 48 53 48 49 42 35 35 35 38 39 37 36
44 46 46 47 47 47 45 47 48 50 51 50 51 49 46 45 44 42 42 45 44 45 43 45 43 38 42 43 44 46 47 46 47 49 52 51 49 45 42 35 36 35 38 37 38
46 46 46 47 48 50 48 49 51 54 59 55 54 54 51 48 48 44 43 44 44 43 42 45 41 41 42 41 43 45 46 47 50 49 51 55 52 47 42 42 35 33 34 29 30
49 49 48 48 49 49 50 52 53 53 65 66 58 56 52 50 52 46 46 48 48 47 46 49 43 41 42 42 44 49 45 48 49 51 54 53 57 49 49 43 41 39 29 26 30
54 53 50 51 53 51 51 52 54 56 69 68 68 56 49 48 47 46 46 47 48 46 47 46 45 45 46 44 45 49 47 47 49 52 58 54 61 55 54 46 38 39 31 32 30
53 56 56 54 57 56 55 54 55 58 74 69 67 63 56 50 49 49 46 47 48 49 48 47 46 44 44 43 44 46 47 49 53 54 61 57 61 56 49 43 42 37 35 38 38
61 63 59 57 57 58 58 58 59 69 69 68 63 62 59 57 53 50 50 53 52 51 52 49 48 48 46 45 46 46 47 52 57 56 62 59 61 47 46 52 52 40 40 39 36
61 60 64 61 60 62 61 60 70 70 65 64 63 61 61 57 55 53 52 52 51 50 49 50 51 45 46 46 49 53 50 52 56 58 65 61 61 53 59 55 50 42 35 33 37
67 64 60 61 64 67 67 67 72 69 64 64 63 64 60 54 52 52 53 54 50 48 50 50 54 52 52 53 52 56 58 53 55 57 62 63 61 62 62 57 45 45 43 41 37
69 68 63 64 69 71 72 69 70 69 66 66 69 68 66 62 59 60 59 58 55 52 47 54 55 54 55 55 59 55 56 59 58 60 65 65 65 67 66 56 44 45 49 46 45
63 69 69 66 75 81 82 68 69 69 70 71 70 71 70 68 66 66 65 63 60 57 56 58 61 62 62 62 60 61 64 62 59 63 66 63 65 67 62 56 50 51 47 43 48
67 70 71 72 73 76 74 69 72 71 70 70 71 76 77 76 73 73 70 70 68 65 65 61 63 66 64 63 63 66 65 64 66 64 66 69 68 63 53 57 54 50 48 49 54
80 75 73 82 80 74 76 72 67 63 63 71 74 73 73 73 73 75 76 71 65 66 67 67 71 71 68 66 67 64 62 61 64 68 74 74 75 53 55 56 48 51 51 55 56
95 90 87 78 73 75 73 67 73 73 75 67 65 66 63 69 70 72 66 66 68 67 68 70 76 74 71 63 65 65 66 67 69 75 75 77 76 56 46 48 47 50 52 55 55
98 99 99 99 91 66 84 71 68 61 68 65 71 65 65 63 61 66 71 73 71 69 68 65 71 70 71 67 66 68 68 62 72 73 79 73 79 63 51 45 48 52 58 59 60
91 96 100 102 96 98 94 102 81 67 69 66 66 64 65 62 63 68 67 67 68 65 67 70 75 71 72 69 67 66 63 67 62 64 70 70 71 57 53 53 55 58 56 56 57
88 86 89 96 101 102 96 97 94 95 95 81 79 80 85 63 64 68 63 65 64 62 65 63 63 59 63 59 60 60 62 49 57 54 56 63 62 58 57 59 59 58 62 60 60
Wind_Direction
254 252 255 252 250 250 250 256 263 266 272 276 282 291 300 320 337 348 13 4 348 334 335 346 346 342 340 335 332 332 332 326 314 304 304 308 312 316 315 315 311 316 308 301 292
254 253 252 253 250 250 253 250 255 259 262 264 263 267 274 282 296 312 325 330 334 335 328 323 327 325 330 333 329 322 322 326 327 325 320 317 318 319 318 319 314 312 314 310 303
256 256 255 253 253 253 251 251 252 255 258 259 262 259 259 263 269 278 284 301 306 314 320 320 318 319 316 319 326 326 319 318 315 316 315 315 312 310 308 317 315 311 312 309 304
258 259 258 257 255 255 255 254 254 256 256 257 259 260 257 256 258 263 269 276 282 290 297 301 305 308 309 309 307 310 310 311 312 313 313 315 317 318 306 307 310 310 310 310 311
259 259 259 261 260 257 257 257 257 256 257 259 259 259 258 257 258 260 263 267 273 276 282 285 289 293 296 297 299 302 303 305 304 305 308 310 315 317 307 310 312 311 310 310 310
259 261 262 258 260 261 261 261 260 259 259 258 260 262 264 263 263 264 266 268 272 274 277 281 284 287 290 292 292 295 298 300 303 304 307 307 313 312 305 311 310 307 306 305 305
261 261 264 264 263 261 261 261 261 262 262 263 263 263 263 267 268 269 271 273 277 280 282 281 283 286 286 289 290 291 294 296 297 298 301 299 315 315 309 309 307 305 300 299 298
264 264 263 264 264 266 264 264 263 264 265 265 266 266 267 269 271 271 273 275 278 279 281 284 285 286 287 288 289 287 289 292 294 295 295 293 298 305 303 307 305 302 300 298 298
263 263 264 264 264 264 266 268 267 266 267 268 268 270 270 271 275 278 279 279 279 280 283 285 287 288 287 290 285 286 288 291 293 294 293 293 294 294 298 297 301 304 299 293 295
264 265 265 265 264 263 264 266 267 267 267 268 268 269 272 272 274 277 277 277 279 282 284 285 285 285 290 284 288 288 286 286 289 290 288 291 291 292 293 295 298 301 295 291 288
266 266 265 265 264 263 264 264 266 266 267 266 266 265 268 269 271 274 278 281 283 285 288 286 283 286 282 283 286 286 286 286 289 289 290 293 290 296 294 295 299 297 293 288 282
264 265 265 265 265 265 264 265 266 267 265 265 265 267 267 269 269 272 277 279 282 283 284 285 286 286 284 285 286 285 286 288 287 288 290 290 288 295 297 299 298 294 292 287 285
263 264 265 266 266 266 266 265 265 268 269 263 264 266 266 268 270 270 273 276 279 279 283 282 287 286 288 288 289 288 288 288 288 288 287 288 289 295 299 301 301 297 295 286 281
262 264 264 265 265 268 267 267 268 268 270 269 263 264 268 270 268 270 270 272 273 277 278 278 282 284 285 287 287 285 288 289 291 291 291 293 297 297 303 306 309 307 295 287 285
266 264 265 265 267 266 267 268 268 268 270 272 272 270 266 268 272 271 271 270 273 275 275 278 279 278 281 282 282 285 287 287 288 289 294 299 299 303 303 307 313 306 301 298 290
269 268 267 264 267 266 266 266 267 268 265 268 272 276 277 274 272 273 271 270 272 273 274 277 278 276 277 278 279 283 284 285 284 288 292 302 297 294 303 305 306 310 301 304 300
264 266 266 265 264 263 263 262 263 263 268 270 274 277 278 280 277 271 270 271 270 271 274 274 274 275 276 279 279 280 282 282 285 291 293 295 291 298 304 301 304 304 296 299 292
266 267 267 262 261 260 255 258 260 266 269 275 277 278 279 278 279 279 276 272 270 273 274 274 274 276 274 276 278 278 276 275 286 288 287 286 287 299 299 299 302 308 302 304 297
266 265 263 259 256 258 259 257 267 266 266 270 272 272 273 275 276 276 275 276 276 275 275 278 273 276 274 275 275 278 277 282 278 281 283 289 292 296 294 295 305 310 304 307 305
267 270 263 253 254 257 256 265 266 266 268 269 270 272 276 276 274 275 275 276 278 277 272 270 268 267 268 268 268 274 278 278 279 278 279 286 289 289 291 298 308 311 302 306 302
259 261 262 260 255 252 256 263 264 264 265 264 268 270 272 273 274 274 273 272 273 275 273 271 272 273 273 270 273 274 274 274 275 278 280 288 280 287 296 307 305 304 300 300 297
252 258 258 260 255 257 256 264 264 261 262 264 265 265 267 270 270 269 269 272 275 274 272 270 267 266 268 271 274 273 276 278 275 281 281 277 281 292 300 297 296 300 296 292 289
249 259 254 261 260 256 264 260 256 255 257 265 261 263 263 263 269 269 269 273 272 271 270 271 269 271 272 273 275 275 280 276 273 274 274 273 285 299 293 291 297 297 292 288 289
258 257 259 259 259 263 254 253 255 260 265 256 259 260 263 263 265 269 269 273 270 268 269 270 271 271 274 276 275 271 276 272 270 272 280 278 287 294 288 295 289 286 282 284 286
255 258 260 259 257 267 266 264 257 250 251 251 251 256 258 261 264 266 268 269 269 267 264 265 267 267 268 274 265 266 271 269 272 278 280 287 282 292 294 283 278 284 284 284 288
257 257 259 260 260 264 265 266 257 253 250 248 257 257 261 264 266 263 264 261 265 264 263 264 264 266 266 268 268 265 265 270 274 281 285 284 283 291 285 282 284 290 288 286 286
254 253 258 260 261 261 261 263 266 262 261 265 271 269 257 261 266 271 267 259 262 267 267 263 262 265 269 268 269 264 269 269 268 270 281 280 288 287 290 291 288 288 286 289 285